| time (UTC) | temp C | wind direction | speed KPH | gust KPH | rain 1hr cm | rain 24hr cm | rain mn cm | humidity % | barometer mb |
| 20260506221529 | 24 | 300 | 3.2 | 6.4 | 0.00 | 0.00 | 0.00 | 56 | 1018.6 |
| 20260506220528 | 23 | 353 | 1.6 | 4.8 | 0.00 | 0.00 | 0.00 | 58 | 1018.7 |
| 20260506215524 | 24 | 279 | 3.2 | 8.0 | 0.00 | 0.00 | 0.00 | 58 | 1018.9 |
| 20260506214548 | 23 | 37 | 1.6 | 6.4 | 0.00 | 0.00 | 0.00 | 58 | 1019.0 |
| 20260506213528 | 23 | 270 | 1.6 | 4.8 | 0.00 | 0.00 | 0.00 | 59 | 1019.0 |
| 20260506212528 | 23 | 285 | 3.2 | 6.4 | 0.00 | 0.00 | 0.00 | 58 | 1019.2 |
| 20260506211528 | 23 | 345 | 3.2 | 6.4 | 0.00 | 0.00 | 0.00 | 58 | 1019.3 |
| 20260506210529 | 23 | 293 | 1.6 | 6.4 | 0.00 | 0.00 | 0.00 | 58 | 1019.4 |
| 20260506205518 | 23 | 1 | 1.6 | 8.0 | 0.00 | 0.00 | 0.00 | 58 | 1019.4 |
| 20260506204529 | 22 | 325 | 1.6 | 3.2 | 0.00 | 0.00 | 0.00 | 58 | 1019.5 |
| 20260506203525 | 22 | 314 | 3.2 | 8.0 | 0.00 | 0.00 | 0.00 | 60 | 1019.6 |
| 20260506202529 | 22 | 278 | 1.6 | 3.2 | 0.00 | 0.00 | 0.00 | 60 | 1019.7 |
| 20260506201529 | 22 | 358 | 1.6 | 4.8 | 0.00 | 0.00 | 0.00 | 60 | 1019.9 |
| 20260506200529 | 22 | 49 | 1.6 | 4.8 | 0.00 | 0.00 | 0.00 | 60 | 1020.0 |
| 20260506195529 | 22 | 341 | 1.6 | 3.2 | 0.00 | 0.00 | 0.00 | 60 | 1020.1 |
| 20260506194530 | 21 | 41 | 1.6 | 4.8 | 0.00 | 0.00 | 0.00 | 61 | 1020.2 |
| 20260506193530 | 21 | 13 | 1.6 | 6.4 | 0.00 | 0.00 | 0.00 | 63 | 1020.3 |
| 20260506192529 | 21 | 352 | 1.6 | 6.4 | 0.00 | 0.00 | 0.00 | 63 | 1020.3 |
| 20260506191530 | 21 | 352 | 1.6 | 4.8 | 0.00 | 0.00 | 0.00 | 64 | 1020.4 |
| 20260506190530 | 21 | 346 | 3.2 | 6.4 | 0.00 | 0.00 | 0.00 | 62 | 1020.5 |
| 20260506185530 | 21 | 42 | 1.6 | 4.8 | 0.00 | 0.00 | 0.00 | 61 | 1020.6 |
| 20260506184519 | 21 | 317 | 1.6 | 9.7 | 0.00 | 0.00 | 0.00 | 63 | 1020.6 |
| 20260506183530 | 20 | 30 | 1.6 | 4.8 | 0.00 | 0.00 | 0.00 | 65 | 1020.6 |
| 20260506182531 | 19 | 350 | 1.6 | 8.0 | 0.00 | 0.00 | 0.00 | 66 | 1020.6 |
| 20260506181531 | 19 | 358 | 1.6 | 4.8 | 0.00 | 0.00 | 0.00 | 64 | 1020.7 |
| 20260506180531 | 18 | 39 | 1.6 | 3.2 | 0.00 | 0.00 | 0.00 | 67 | 1020.7 |
| 20260506175518 | 17 | 331 | 3.2 | 6.4 | 0.00 | 0.00 | 0.00 | 69 | 1020.6 |
| 20260506174518 | 17 | 308 | 1.6 | 6.4 | 0.00 | 0.00 | 0.00 | 70 | 1020.7 |
| 20260506173518 | 17 | 340 | 3.2 | 4.8 | 0.00 | 0.00 | 0.00 | 70 | 1020.8 |
| 20260506172518 | 17 | 322 | 0.0 | 1.6 | 0.00 | 0.00 | 0.00 | 72 | 1020.8 |
| 20260506171518 | 16 | 256 | 1.6 | 3.2 | 0.00 | 0.00 | 0.00 | 72 | 1020.8 |
| 20260506170518 | 16 | 302 | 1.6 | 3.2 | 0.00 | 0.00 | 0.00 | 73 | 1020.9 |
| 20260506165518 | 16 | 288 | 1.6 | 1.6 | 0.00 | 0.00 | 0.00 | 74 | 1020.8 |
| 20260506164532 | 16 | 331 | 1.6 | 3.2 | 0.00 | 0.00 | 0.00 | 75 | 1020.8 |
| 20260506163519 | 15 | 320 | 1.6 | 3.2 | 0.00 | 0.00 | 0.00 | 76 | 1020.8 |
| 20260506162559 | 15 | 241 | 1.6 | 3.2 | 0.00 | 0.00 | 0.00 | 77 | 1020.8 |
| 20260506161519 | 15 | 326 | 1.6 | 4.8 | 0.00 | 0.00 | 0.00 | 78 | 1020.8 |
| 20260506160519 | 15 | 326 | 1.6 | 3.2 | 0.00 | 0.00 | 0.00 | 79 | 1020.8 |
| 20260506155519 | 14 | 329 | 1.6 | 3.2 | 0.00 | 0.00 | 0.00 | 81 | 1020.8 |
| 20260506154519 | 14 | 310 | 1.6 | 3.2 | 0.00 | 0.00 | 0.00 | 82 | 1020.7 |
| 20260506153520 | 13 | 328 | 1.6 | 4.8 | 0.00 | 0.00 | 0.00 | 85 | 1020.7 |
| 20260506152520 | 13 | 320 | 1.6 | 3.2 | 0.00 | 0.00 | 0.00 | 88 | 1020.7 |
| 20260506151520 | 13 | 336 | 1.6 | 3.2 | 0.00 | 0.00 | 0.00 | 90 | 1020.6 |
| 20260506150520 | 12 | 323 | 1.6 | 1.6 | 0.00 | 0.00 | 0.00 | 91 | 1020.6 |
| 20260506145520 | 12 | 318 | 1.6 | 3.2 | 0.00 | 0.00 | 0.00 | 93 | 1020.5 |
| 20260506144520 | 12 | 320 | 0.0 | 1.6 | 0.00 | 0.00 | 0.00 | 93 | 1020.5 |
| 20260506143520 | 12 | 324 | 1.6 | 3.2 | 0.00 | 0.00 | 0.00 | 93 | 1020.4 |
| 20260506142520 | 12 | 329 | 1.6 | 3.2 | 0.00 | 0.00 | 0.00 | 93 | 1020.4 |
| 20260506141520 | 11 | 259 | 0.0 | 1.6 | 0.00 | 0.00 | 0.00 | 93 | 1020.3 |
| 20260506140521 | 11 | 281 | 1.6 | 1.6 | 0.00 | 0.00 | 0.00 | 93 | 1020.2 |
| 20260506135521 | 11 | 311 | 1.6 | 1.6 | 0.00 | 0.00 | 0.00 | 93 | 1020.0 |
| 20260506134521 | 11 | 273 | 1.6 | 1.6 | 0.00 | 0.00 | 0.00 | 93 | 1019.9 |
| 20260506133522 | 11 | 317 | 1.6 | 3.2 | 0.00 | 0.00 | 0.00 | 93 | 1019.7 |
| 20260506132521 | 10 | 284 | 1.6 | 1.6 | 0.00 | 0.00 | 0.00 | 92 | 1019.6 |
| 20260506131521 | 10 | 285 | 1.6 | 1.6 | 0.00 | 0.00 | 0.00 | 92 | 1019.5 |
| 20260506130521 | 10 | 301 | 1.6 | 3.2 | 0.00 | 0.00 | 0.00 | 92 | 1019.5 |
| 20260506125521 | 10 | 325 | 1.6 | 3.2 | 0.00 | 0.00 | 0.00 | 92 | 1019.4 |
| 20260506124623 | 10 | 325 | 1.6 | 3.2 | 0.00 | 0.00 | 0.00 | 92 | 1019.4 |
| 20260506123521 | 10 | 307 | 1.6 | 1.6 | 0.00 | 0.00 | 0.00 | 92 | 1019.4 |
| 20260506122522 | 10 | 297 | 0.0 | 1.6 | 0.00 | 0.00 | 0.00 | 91 | 1019.3 |
| 20260506121522 | 10 | 253 | 1.6 | 1.6 | 0.00 | 0.00 | 0.00 | 91 | 1019.3 |
| 20260506120523 | 10 | 282 | 1.6 | 1.6 | 0.00 | 0.00 | 0.00 | 91 | 1019.2 |
| 20260506115522 | 10 | 283 | 0.0 | 1.6 | 0.00 | 0.00 | 0.00 | 91 | 1019.2 |
| 20260506114543 | 10 | 314 | 1.6 | 1.6 | 0.00 | 0.00 | 0.00 | 90 | 1019.1 |
| 20260506113523 | 10 | 267 | 1.6 | 1.6 | 0.00 | 0.00 | 0.00 | 90 | 1019.0 |
| 20260506112542 | 11 | 280 | 1.6 | 1.6 | 0.00 | 0.00 | 0.00 | 90 | 1019.0 |
| 20260506111523 | 11 | 274 | 0.0 | 1.6 | 0.00 | 0.00 | 0.00 | 89 | 1019.0 |
| 20260506110523 | 11 | 291 | 1.6 | 1.6 | 0.00 | 0.00 | 0.00 | 89 | 1018.9 |
| 20260506105523 | 11 | 308 | 1.6 | 3.2 | 0.00 | 0.00 | 0.00 | 89 | 1018.9 |
| 20260506104523 | 11 | 308 | 1.6 | 1.6 | 0.00 | 0.00 | 0.00 | 88 | 1018.8 |
| 20260506103543 | 11 | 286 | 1.6 | 1.6 | 0.00 | 0.00 | 0.00 | 87 | 1018.8 |
| 20260506102523 | 12 | 321 | 0.0 | 1.6 | 0.00 | 0.00 | 0.00 | 86 | 1018.8 |
| 20260506101524 | 12 | 316 | 1.6 | 3.2 | 0.00 | 0.03 | 0.00 | 86 | 1018.8 |
| 20260506100524 | 12 | 316 | 1.6 | 1.6 | 0.00 | 0.03 | 0.00 | 85 | 1018.8 |
| 20260506095524 | 12 | 311 | 1.6 | 3.2 | 0.00 | 0.05 | 0.00 | 85 | 1018.8 |
| 20260506094524 | 13 | 306 | 1.6 | 1.6 | 0.00 | 0.05 | 0.00 | 84 | 1018.8 |
| 20260506093524 | 13 | 306 | 0.0 | 1.6 | 0.00 | 0.05 | 0.00 | 83 | 1018.9 |
| 20260506092524 | 13 | 330 | 1.6 | 3.2 | 0.00 | 0.05 | 0.00 | 82 | 1018.9 |
| 20260506091544 | 13 | 338 | 1.6 | 3.2 | 0.00 | 0.05 | 0.00 | 82 | 1018.9 |
| 20260506090606 | 13 | 340 | 1.6 | 3.2 | 0.00 | 0.05 | 0.00 | 82 | 1018.8 |
| 20260506085525 | 13 | 310 | 1.6 | 3.2 | 0.00 | 0.05 | 0.00 | 82 | 1018.8 |
| 20260506084525 | 13 | 313 | 1.6 | 3.2 | 0.00 | 0.05 | 0.00 | 83 | 1018.9 |
| 20260506083525 | 13 | 297 | 1.6 | 3.2 | 0.00 | 0.05 | 0.00 | 83 | 1018.9 |
| 20260506082546 | 13 | 329 | 1.6 | 3.2 | 0.00 | 0.05 | 0.00 | 83 | 1018.9 |
| 20260506081526 | 13 | 325 | 1.6 | 3.2 | 0.00 | 0.05 | 0.00 | 82 | 1019.0 |
| 20260506080525 | 13 | 307 | 1.6 | 3.2 | 0.00 | 0.05 | 0.00 | 82 | 1018.9 |
| 20260506073526 | 13 | 319 | 1.6 | 3.2 | 0.00 | 0.05 | 0.00 | 81 | 1018.7 |
| 20260506072526 | 13 | 315 | 1.6 | 3.2 | 0.00 | 0.05 | 0.00 | 81 | 1018.7 |
| 20260506071526 | 13 | 341 | 3.2 | 3.2 | 0.00 | 0.05 | 0.00 | 81 | 1018.6 |
| 20260506070526 | 13 | 323 | 1.6 | 4.8 | 0.00 | 0.05 | 0.00 | 81 | 1018.5 |
| 20260506061527 | 14 | 312 | 1.6 | 3.2 | 0.00 | 0.05 | 0.05 | 80 | 1018.2 |
| 20260506060547 | 14 | 335 | 1.6 | 3.2 | 0.00 | 0.05 | 0.05 | 80 | 1018.1 |
| 20260506050528 | 14 | 322 | 1.6 | 1.6 | 0.00 | 0.05 | 0.05 | 77 | 1017.7 |
| 20260506044548 | 14 | 328 | 1.6 | 1.6 | 0.00 | 0.05 | 0.05 | 76 | 1017.5 |
| 20260506043528 | 15 | 313 | 1.6 | 3.2 | 0.00 | 0.05 | 0.05 | 76 | 1017.5 |
| 20260506042528 | 15 | 314 | 1.6 | 1.6 | 0.00 | 0.05 | 0.05 | 75 | 1017.4 |
| 20260506041529 | 15 | 303 | 1.6 | 3.2 | 0.00 | 0.05 | 0.05 | 75 | 1017.3 |
| 20260506040609 | 15 | 286 | 0.0 | 1.6 | 0.00 | 0.05 | 0.05 | 75 | 1017.1 |
| 20260506035529 | 15 | 299 | 1.6 | 1.6 | 0.00 | 0.05 | 0.05 | 75 | 1017.0 |
| 20260506034529 | 15 | 321 | 1.6 | 3.2 | 0.00 | 0.05 | 0.05 | 74 | 1016.9 |
| 20260506033529 | 15 | 346 | 3.2 | 4.8 | 0.00 | 0.05 | 0.05 | 74 | 1016.8 |
| 20260506032549 | 15 | 335 | 1.6 | 3.2 | 0.00 | 0.05 | 0.05 | 74 | 1016.6 |
| 20260506031529 | 15 | 327 | 1.6 | 3.2 | 0.00 | 0.05 | 0.05 | 73 | 1016.5 |
| 20260506030529 | 16 | 339 | 1.6 | 3.2 | 0.00 | 0.05 | 0.05 | 72 | 1016.5 |
| 20260506025610 | 16 | 335 | 1.6 | 1.6 | 0.00 | 0.05 | 0.05 | 71 | 1016.3 |
| 20260506024530 | 16 | 339 | 1.6 | 1.6 | 0.00 | 0.05 | 0.05 | 71 | 1016.2 |
| 20260506023550 | 16 | 354 | 1.6 | 1.6 | 0.00 | 0.05 | 0.05 | 71 | 1016.1 |
| 20260506022530 | 16 | 319 | 0.0 | 3.2 | 0.00 | 0.05 | 0.05 | 70 | 1016.0 |
| 20260506021530 | 16 | 328 | 1.6 | 3.2 | 0.00 | 0.05 | 0.05 | 70 | 1016.0 |
| 20260506020530 | 16 | 313 | 0.0 | 1.6 | 0.00 | 0.05 | 0.05 | 71 | 1016.0 |
| 20260506015550 | 16 | 332 | 1.6 | 3.2 | 0.00 | 0.05 | 0.05 | 70 | 1016.0 |
| 20260506014550 | 16 | 327 | 0.0 | 1.6 | 0.00 | 0.05 | 0.05 | 69 | 1016.0 |
| 20260506013531 | 16 | 338 | 0.0 | 1.6 | 0.00 | 0.05 | 0.05 | 69 | 1016.1 |
| 20260506012531 | 16 | 329 | 1.6 | 1.6 | 0.00 | 0.05 | 0.05 | 69 | 1016.1 |
| 20260506011551 | 16 | 338 | 1.6 | 3.2 | 0.00 | 0.05 | 0.05 | 69 | 1016.0 |
| 20260506010531 | 16 | 348 | 1.6 | 3.2 | 0.00 | 0.05 | 0.05 | 69 | 1016.0 |
| 20260506005531 | 16 | 10 | 0.0 | 3.2 | 0.00 | 0.05 | 0.05 | 69 | 1016.0 |
| 20260506004531 | 16 | 359 | 1.6 | 3.2 | 0.00 | 0.05 | 0.05 | 69 | 1015.9 |
| 20260506003531 | 16 | 325 | 3.2 | 6.4 | 0.00 | 0.05 | 0.05 | 69 | 1015.9 |
| 20260506002531 | 17 | 345 | 1.6 | 3.2 | 0.00 | 0.05 | 0.05 | 69 | 1015.8 |
| 20260506001633 | 17 | 277 | 1.6 | 4.8 | 0.00 | 0.05 | 0.05 | 68 | 1015.7 |
| 20260506000532 | 17 | 347 | 3.2 | 6.4 | 0.00 | 0.05 | 0.05 | 68 | 1015.6 |
| 20260505235532 | 17 | 340 | 1.6 | 6.4 | 0.00 | 0.05 | 0.05 | 68 | 1015.6 |
| 20260505234532 | 17 | 14 | 1.6 | 6.4 | 0.00 | 0.05 | 0.05 | 68 | 1015.6 |
| 20260505233532 | 17 | 352 | 3.2 | 4.8 | 0.00 | 0.05 | 0.05 | 67 | 1015.7 |
| 20260505232532 | 18 | 35 | 1.6 | 3.2 | 0.00 | 0.05 | 0.05 | 66 | 1015.7 |
| 20260505231532 | 18 | 264 | 0.0 | 1.6 | 0.00 | 0.05 | 0.05 | 66 | 1015.8 |
| 20260505230518 | 18 | 352 | 1.6 | 3.2 | 0.00 | 0.05 | 0.05 | 66 | 1015.7 |
| 20260505225517 | 18 | 351 | 1.6 | 4.8 | 0.00 | 0.05 | 0.05 | 65 | 1015.7 |
| 20260505224533 | 18 | 329 | 1.6 | 4.8 | 0.00 | 0.05 | 0.05 | 65 | 1015.7 |
| 20260505223532 | 18 | 9 | 3.2 | 4.8 | 0.00 | 0.05 | 0.05 | 64 | 1015.8 |
| 20260505222533 | 18 | 358 | 1.6 | 4.8 | 0.00 | 0.05 | 0.05 | 64 | 1015.9 |